Gulkana, AK

3:37 PM AKST on December 16, 2017 (GMT -0900)
Gulkana

Weather History for PAGK - March, 2013

Change the Weather History Date:

Saturday, March 9, 2013

  Actual Average Record
Temperature  
Mean Temperature 30 °F -  
Max Temperature 36 °F 25 °F 47 °F (1984)
Min Temperature 23 °F 0 °F -48 °F (1972)
Degree Days  
Heating Degree Days 35    
Moisture  
Dew Point 16 °F    
Average Humidity 55    
Maximum Humidity 78    
Minimum Humidity 30    
Precipitation  
Precipitation 0.00 in - - ()
Snow  
Snow 0.00 in - - ()
Snow Depth 10.00 in    
Sea Level Pressure  
Sea Level Pressure 29.94 in    
Wind  
Wind Speed 10 mph (SSE)    
Max Wind Speed 16 mph    
Max Gust Speed -    
Visibility 10 miles    
Events      
Averages and records for this station are not official NWS values.
T = Trace of Precipitation, MM = Missing Value Source: NWS Daily Summary

Daily Weather History Graph

Daily Weather History Graph

Search for Another Location

Airport or City:

Trip Planner

Search our weather history database for the weather conditions in past years. The results will help you decide how hot, cold, wet, or windy it might be!

Date:

Astronomy

Mar. 09, 2013 Rise Set
Actual Time 7:17 AM AKST 6:28 PM AKST
Civil Twilight 6:33 AM AKST 7:12 PM AKST
Nautical Twilight 5:41 AM AKST 8:04 PM AKST
Astronomical Twilight 4:46 AM AKST 9:00 PM AKST
Moon 6:15 AM AKST (3/9) 4:19 PM AKST (3/9)
Length of Visible Light 12h 39m
Length of Day
11h 11m
Waning Crescent, 5% of the Moon is Illuminated
Mar 9
Waning Crescent
Mar 11
New
Mar 19
First Quarter
Mar 27
Full
Apr 2
Last Quarter

Hourly Weather History & Observations

Time (AKST) Temp. Windchill Dew Point Humidity Pressure Visibility Wind Dir Wind Speed Gust Speed Precip Events Conditions
12:53 AM 28.9 °F 21.9 °F 23.0 °F 78% 29.85 in 10.0 mi SSW 6.9 mph - N/A   Mostly Cloudy
1:53 AM 28.9 °F 17.7 °F 19.9 °F 69% 29.84 in 10.0 mi SSE 15.0 mph - N/A   Clear
3:53 AM 28.9 °F 18.2 °F 16.0 °F 58% 29.88 in 10.0 mi SSE 13.8 mph - N/A   Clear
4:53 AM 30.0 °F 20.5 °F 16.0 °F 56% 29.90 in 10.0 mi SSE 11.5 mph - N/A   Partly Cloudy
5:53 AM 28.9 °F 17.7 °F 17.1 °F 61% 29.91 in 10.0 mi SSE 15.0 mph - N/A   Overcast
6:00 AM 28.9 °F 18.2 °F 16.0 °F 58% 29.83 in 10.0 mi SSE 13.8 mph - N/A   Mostly Cloudy
6:53 AM 28.0 °F 17.0 °F 16.0 °F 61% 29.91 in 10.0 mi SSE 13.8 mph - N/A   Mostly Cloudy
7:53 AM 27.0 °F 16.7 °F 16.0 °F 63% 29.93 in 10.0 mi SSE 11.5 mph - N/A   Mostly Cloudy
8:53 AM 27.0 °F 16.1 °F 16.0 °F 63% 29.93 in 10.0 mi SSE 12.7 mph - N/A   Mostly Cloudy
9:53 AM 30.0 °F 19.1 °F 17.1 °F 59% 29.94 in 10.0 mi SSE 15.0 mph - N/A   Mostly Cloudy
10:53 AM 33.1 °F 23.4 °F 17.1 °F 52% 29.94 in 10.0 mi SSE 13.8 mph - N/A   Mostly Cloudy
11:53 AM 34.0 °F 23.8 °F 16.0 °F 48% 29.94 in 10.0 mi SSE 16.1 mph - N/A   Mostly Cloudy
12:53 PM 34.0 °F 24.6 °F 16.0 °F 48% 29.95 in 10.0 mi SSE 13.8 mph - N/A   Mostly Cloudy
1:53 PM 36.0 °F 27.5 °F 15.1 °F 43% 29.94 in 10.0 mi SSE 12.7 mph - N/A   Mostly Cloudy
2:53 PM 36.0 °F 29.6 °F 16.0 °F 44% 29.94 in 10.0 mi South 8.1 mph - N/A   Mostly Cloudy
3:53 PM 36.0 °F 30.3 °F 15.1 °F 43% 29.94 in 10.0 mi South 6.9 mph - N/A   Mostly Cloudy
4:53 PM 36.0 °F 28.5 °F 15.1 °F 43% 29.95 in 10.0 mi SSE 10.4 mph - N/A   Mostly Cloudy
5:53 PM 33.1 °F 27.7 °F 14.0 °F 46% 29.96 in 10.0 mi South 5.8 mph - N/A   Mostly Cloudy
6:53 PM 30.9 °F 26.2 °F 14.0 °F 50% 29.98 in 10.0 mi SSE 4.6 mph - N/A   Mostly Cloudy
7:53 PM 30.0 °F - 14.0 °F 51% 30.01 in 10.0 mi Calm Calm - N/A   Mostly Cloudy
8:53 PM 27.0 °F 19.5 °F 15.1 °F 61% 30.03 in 10.0 mi South 6.9 mph - N/A   Mostly Cloudy
9:27 PM 28.0 °F 21.7 °F 15.1 °F 58% 29.95 in 10.0 mi SSW 5.8 mph - N/A   Mostly Cloudy
9:53 PM 28.0 °F 21.7 °F 14.0 °F 56% 30.04 in 10.0 mi South 5.8 mph - N/A   Mostly Cloudy
10:53 PM 25.0 °F 15.5 °F 14.0 °F 63% 30.06 in 10.0 mi South 9.2 mph - N/A   Scattered Clouds
11:53 PM 23.0 °F 13.9 °F 14.0 °F 68% 30.08 in 10.0 mi South 8.1 mph - N/A   Scattered Clouds